FW2847 Weather Reports


Display with metric or nautical units.
time (UTC)temp
F
wind
direction
speed
MPH
gust
MPH
rain 1hr
in
rain 24hr
in
rain mn
in
humidity
%
barometer
mb
20260906152525 74 118 1.0 3.0 0.00 0.01 0.00 53 1020.6
20260906152026 74 95 0.0 3.0 0.00 0.01 0.00 56 1020.6
20260906151757 73 113 0.0 3.0 0.00 0.01 0.00 57 1020.6
20260906151024 72 99 0.0 2.0 0.00 0.01 0.00 59 1020.6
20260906150524 72 88 0.0 2.0 0.00 0.01 0.00 60 1020.6
20260906150023 71 88 0.0 2.0 0.00 0.01 0.00 61 1020.6
20260906145522 70 270 1.0 5.0 0.00 0.01 0.00 63 1020.6
20260906145021 70 311 1.0 5.0 0.00 0.01 0.00 63 1020.6
20260906144524 70 264 0.0 3.0 0.00 0.01 0.00 64 1020.6
20260906144022 69 354 0.0 3.0 0.00 0.01 0.00 67 1020.6
20260906143522 69 58 0.0 1.0 0.00 0.01 0.00 68 1020.6
20260906143027 68 58 1.0 4.0 0.00 0.01 0.00 70 1020.6
20260906143022 68 58 1.0 4.0 0.00 0.01 0.00 71 1020.6
20260906142020 68 53 1.0 3.0 0.00 0.01 0.00 72 1020.6
20260906141521 67 352 1.0 3.0 0.00 0.01 0.00 75 1020.6
20260906141253 67 312 1.0 3.0 0.00 0.01 0.00 75 1020.6
20260906140521 67 291 1.0 5.0 0.00 0.01 0.00 74 1020.6
20260906140021 67 355 2.0 5.0 0.00 0.01 0.00 75 1020.6
20260906135520 66 299 2.0 4.0 0.00 0.01 0.00 75 1020.6
20260906135023 65 359 2.0 5.0 0.00 0.01 0.00 75 1020.6
20260906134517 65 319 3.0 6.0 0.00 0.01 0.00 75 1020.6
20260906134020 64 317 3.0 6.0 0.00 0.01 0.00 76 1020.6
20260906133750 64 311 3.0 6.0 0.00 0.01 0.00 76 1020.6
20260906133017 63 314 3.0 5.0 0.00 0.01 0.00 76 1020.6
20260906132516 63 326 3.0 5.0 0.00 0.01 0.00 76 1020.6
20260906132017 62 297 2.0 4.0 0.00 0.01 0.00 76 1020.6
20260906131747 61 315 2.0 4.0 0.00 0.01 0.00 77 1020.6
20260906131014 61 311 3.0 4.0 0.00 0.01 0.00 76 1020.6
20260906130513 60 297 3.0 4.0 0.00 0.01 0.00 76 1020.6
20260906130011 60 300 3.0 4.0 0.00 0.01 0.00 78 1020.6
20260906125515 60 299 2.0 4.0 0.00 0.01 0.00 80 1020.6
20260906125010 60 304 2.0 3.0 0.00 0.01 0.00 80 1020.6
20260906124509 60 300 2.0 3.0 0.00 0.01 0.00 79 1020.6
20260906124241 60 295 2.0 4.0 0.00 0.01 0.00 79 1020.6
20260906123742 60 290 2.0 4.0 0.00 0.01 0.00 79 1020.6
20260906123010 60 281 2.0 3.0 0.00 0.01 0.00 79 1020.6
20260906122510 60 294 2.0 5.0 0.00 0.01 0.00 79 1020.6
20260906122242 60 293 2.0 5.0 0.00 0.01 0.00 78 1020.6
20260906122131 60 296 2.0 4.0 0.00 0.01 0.00 79 1020.6
20260906121240 60 280 3.0 5.0 0.00 0.01 0.00 79 1020.6
20260906120510 60 295 2.0 5.0 0.00 0.01 0.00 79 1020.6
20260906120014 60 292 2.0 3.0 0.00 0.01 0.00 79 1020.6
20260906120009 60 298 1.0 3.0 0.00 0.01 0.00 79 1020.6
20260906115628 60 291 2.0 4.0 0.00 0.01 0.00 79 1020.6
20260906114510 61 307 2.0 4.0 0.00 0.01 0.00 78 1020.6
20260906114010 60 304 2.0 4.0 0.00 0.01 0.00 78 1020.6
20260906113516 60 317 3.0 6.0 0.00 0.01 0.00 77 1020.6
20260906113511 60 313 3.0 6.0 0.00 0.01 0.00 78 1020.6
20260906112510 60 308 3.0 5.0 0.00 0.01 0.00 76 1020.6
20260906112010 60 300 2.0 5.0 0.00 0.01 0.00 76 1020.6
20260906111512 61 304 2.0 5.0 0.00 0.01 0.00 74 1020.6
20260906111011 61 6 2.0 5.0 0.00 0.01 0.00 73 1020.6
20260906110510 61 331 3.0 5.0 0.00 0.01 0.00 72 1020.6
20260906110011 61 4 2.0 5.0 0.00 0.01 0.00 71 1020.6
20260906105741 61 290 2.0 5.0 0.00 0.01 0.00 70 1020.6
20260906105241 61 330 2.0 5.0 0.00 0.01 0.00 69 1020.6
20260906104509 61 338 2.0 6.0 0.00 0.01 0.00 69 1020.6
20260906104016 61 327 2.0 4.0 0.00 0.01 0.00 68 1020.6
20260906104011 61 325 2.0 6.0 0.00 0.01 0.00 68 1020.6
20260906103010 61 304 2.0 4.0 0.00 0.01 0.00 68 1020.6
20260906102510 61 304 2.0 4.0 0.00 0.01 0.00 68 1020.6
20260906102011 62 309 2.0 5.0 0.00 0.01 0.00 68 1020.6
20260906101509 62 316 2.0 5.0 0.00 0.01 0.00 68 1020.6
20260906101011 62 355 3.0 6.0 0.00 0.01 0.00 67 1020.6
20260906100511 63 348 3.0 6.0 0.00 0.01 0.00 67 1020.6
20260906100012 63 324 2.0 6.0 0.00 0.01 0.00 67 1020.6
20260906095509 63 19 1.0 5.0 0.00 0.01 0.00 65 1020.6
20260906095011 64 33 1.0 3.0 0.00 0.01 0.00 63 1020.6
20260906094508 64 8 0.0 3.0 0.00 0.01 0.00 62 1020.6
20260906094240 64 333 0.0 2.0 0.00 0.01 0.00 60 1020.6
20260906093511 64 352 1.0 2.0 0.00 0.01 0.00 58 1020.6
20260906093007 64 302 1.0 2.0 0.00 0.01 0.00 57 1020.6
20260906092506 64 295 0.0 2.0 0.00 0.01 0.00 58 1020.6
20260906092006 64 296 1.0 2.0 0.00 0.01 0.00 57 1020.6
20260906091506 65 294 1.0 4.0 0.00 0.01 0.00 55 1020.6
20260906091238 65 295 2.0 4.0 0.00 0.01 0.00 55 1020.6
20260906090504 67 304 1.0 4.0 0.00 0.01 0.00 53 1020.6
20260906090236 67 304 1.0 4.0 0.00 0.01 0.00 53 1020.6
20260906085506 68 334 1.0 3.0 0.00 0.01 0.00 52 1020.6
20260906085003 68 288 0.0 3.0 0.00 0.01 0.00 51 1020.6
20260906084503 67 330 1.0 4.0 0.00 0.01 0.00 51 1020.6
20260906084002 67 10 1.0 4.0 0.00 0.01 0.00 52 1020.6
20260906083503 67 358 2.0 6.0 0.00 0.01 0.00 53 1020.6
20260906083001 67 337 2.0 6.0 0.00 0.01 0.00 53 1020.6
20260906082503 66 312 3.0 5.0 0.00 0.01 0.00 54 1020.6
20260906082000 66 306 4.0 6.0 0.00 0.01 0.00 55 1020.6
20260906081501 66 293 4.0 6.0 0.00 0.01 0.00 55 1020.6
20260906081000 67 311 4.0 6.0 0.00 0.01 0.00 54 1020.6
20260906080501 66 314 5.0 7.0 0.00 0.01 0.00 54 1020.6
20260906075958 66 305 5.0 8.0 0.00 0.01 0.00 54 1020.6
20260906075500 67 298 5.0 8.0 0.00 0.01 0.00 54 1020.6
20260906075228 66 288 4.0 6.0 0.00 0.01 0.00 55 1020.6
20260906074457 66 305 4.0 6.0 0.00 0.01 0.00 55 1020.6
20260906074228 67 298 4.0 6.0 0.00 0.01 0.00 53 1020.6
20260906073457 67 301 4.0 6.0 0.00 0.01 0.00 53 1020.6
20260906072957 67 295 4.0 5.0 0.00 0.01 0.00 54 1020.6
20260906072727 68 300 3.0 5.0 0.00 0.01 0.00 54 1020.6
20260906072229 68 300 3.0 4.0 0.00 0.01 0.00 54 1020.6
20260906071458 68 293 3.0 5.0 0.00 0.01 0.00 54 1020.6
20260906070959 69 308 3.0 5.0 0.00 0.01 0.00 53 1020.6
20260906070459 71 299 2.0 5.0 0.00 0.01 0.00 47 1020.6
20260906065959 70 285 3.0 5.0 0.00 0.01 0.00 49 1020.6
20260906065458 70 285 2.0 5.0 0.00 0.01 0.00 50 1020.6
20260906064958 70 292 1.0 5.0 0.00 0.01 0.00 52 1020.6
20260906064456 70 279 1.0 2.0 0.00 0.01 0.00 51 1020.6
20260906063957 70 278 1.0 2.0 0.00 0.01 0.00 53 1020.6
20260906063454 69 279 0.0 1.0 0.00 0.01 0.00 55 1020.6
20260906062955 68 278 0.0 2.0 0.00 0.01 0.00 57 1020.6
20260906062453 68 272 0.0 2.0 0.00 0.01 0.00 60 1020.6
20260906061956 69 219 0.0 0.0 0.01 0.01 0.00 56 1020.6
20260906061454 69 219 0.0 0.0 0.01 0.01 0.00 56 1020.6
20260906061224 69 219 0.0 1.0 0.01 0.01 0.00 56 1020.6
20260906060454 69 219 0.0 1.0 0.01 0.01 0.00 57 1020.6
20260906055950 69 219 0.0 3.0 0.01 0.01 0.01 56 1020.6
20260906055450 69 231 0.0 3.0 0.01 0.01 0.01 61 1020.6
20260906054951 69 255 2.0 4.0 0.01 0.01 0.01 58 1020.6
20260906054453 70 295 3.0 5.0 0.01 0.01 0.01 55 1020.6
20260906053951 69 288 3.0 5.0 0.01 0.01 0.01 55 1020.6
20260906053449 68 295 3.0 7.0 0.01 0.01 0.01 59 1020.6
20260906052950 68 308 3.0 7.0 0.01 0.01 0.01 64 1020.6
20260906052451 69 305 2.0 7.0 0.01 0.01 0.01 62 1020.6
20260906051949 71 226 0.0 0.0 0.00 0.00 0.00 53 1020.6
20260906051450 72 167 0.0 2.0 0.00 0.00 0.00 51 1020.6
20260906050948 73 158 0.0 2.0 0.00 0.00 0.00 48 1020.6
20260906050450 74 272 0.0 1.0 0.00 0.00 0.00 46 1020.6
20260906045947 74 280 0.0 2.0 0.00 0.00 0.00 45 1020.6
20260906045448 75 101 0.0 2.0 0.00 0.00 0.00 42 1020.6
20260906044948 76 184 0.0 1.0 0.00 0.00 0.00 39 1020.6
20260906044449 76 90 0.0 3.0 0.00 0.00 0.00 38 1020.6
20260906043948 76 319 2.0 5.0 0.00 0.00 0.00 37 1020.6
20260906043717 76 351 4.0 10.0 0.00 0.00 0.00 37 1020.6
20260906042948 77 315 5.0 10.0 0.00 0.00 0.00 37 1020.6
20260906042447 77 319 5.0 13.0 0.00 0.00 0.00 37 1020.6
20260906041947 77 281 4.0 13.0 0.00 0.00 0.00 38 1020.6
20260906041446 77 268 3.0 13.0 0.00 0.00 0.00 39 1020.6
20260906040948 77 191 3.0 11.0 0.00 0.00 0.00 38 1020.6
20260906040446 77 267 3.0 12.0 0.00 0.00 0.00 38 1020.6
20260906035945 77 331 3.0 12.0 0.00 0.00 0.00 38 1020.6
20260906035446 77 277 2.0 8.0 0.00 0.00 0.00 36 1020.6
20260906034946 76 291 1.0 6.0 0.00 0.00 0.00 35 1020.6
20260906034446 78 75 3.0 8.0 0.00 0.00 0.00 34 1020.6
20260906033943 79 277 4.0 8.0 0.00 0.00 0.00 33 1020.6
20260906033713 79 280 4.0 7.0 0.00 0.00 0.00 32 1020.6
20260906032943 79 278 4.0 7.0 0.00 0.00 0.00 32 1020.6
20260906032443 79 287 4.0 7.0 0.00 0.00 0.00 32 1020.6
20260906031943 78 290 4.0 7.0 0.00 0.00 0.00 33 1020.6
20260906031445 78 289 4.0 7.0 0.00 0.00 0.00 33 1020.6
20260906030943 78 268 5.0 10.0 0.00 0.00 0.00 33 1020.6
20260906030444 78 288 6.0 10.0 0.00 0.00 0.00 33 1020.6
20260906025943 78 282 5.0 10.0 0.00 0.00 0.00 34 1020.6
20260906025445 77 269 5.0 8.0 0.00 0.00 0.00 34 1020.6
20260906024942 78 292 5.0 9.0 0.00 0.00 0.00 34 1020.6
20260906024714 77 295 5.0 9.0 0.00 0.00 0.00 34 1020.6
20260906023945 77 281 6.0 9.0 0.00 0.00 0.00 34 1020.6
20260906023442 77 279 5.0 9.0 0.00 0.00 0.00 34 1020.6
20260906022943 77 299 4.0 7.0 0.00 0.00 0.00 34 1020.6
20260906022442 78 266 5.0 9.0 0.00 0.00 0.00 34 1020.6
20260906021945 78 297 5.0 10.0 0.00 0.00 0.00 33 1020.6
20260906021443 78 298 5.0 10.0 0.00 0.00 0.00 33 1020.6
20260906020942 78 296 4.0 7.0 0.00 0.00 0.00 32 1020.6
20260906020713 79 298 5.0 9.0 0.00 0.00 0.00 31 1020.6
20260906015945 80 295 6.0 11.0 0.00 0.00 0.00 31 1020.6
20260906015443 80 275 7.0 13.0 0.00 0.00 0.00 31 1020.6
20260906014944 80 287 7.0 13.0 0.00 0.00 0.00 31 1020.6
20260906014443 80 296 6.0 12.0 0.00 0.00 0.00 31 1020.6
20260906013943 79 295 6.0 9.0 0.00 0.00 0.00 32 1020.6
20260906013443 79 288 5.0 9.0 0.00 0.00 0.00 32 1020.6
20260906013215 80 297 5.0 9.0 0.00 0.00 0.00 32 1020.6
20260906012443 79 302 6.0 9.0 0.00 0.00 0.00 32 1020.6
20260906011943 80 301 6.0 10.0 0.00 0.00 0.00 32 1020.6
20260906011445 80 293 6.0 10.0 0.00 0.00 0.00 32 1020.6
20260906011214 80 274 7.0 10.0 0.00 0.00 0.00 32 1020.6
20260906010444 80 298 7.0 10.0 0.00 0.00 0.00 31 1020.6
20260906005943 80 302 7.0 10.0 0.00 0.00 0.00 31 1020.6
20260906005716 80 285 6.0 10.0 0.00 0.00 0.00 31 1020.6
20260906005214 81 317 6.0 9.0 0.00 0.00 0.00 31 1020.6
20260906004444 80 296 5.0 8.0 0.00 0.00 0.00 31 1020.6
20260906003944 81 314 6.0 11.0 0.00 0.00 0.00 31 1020.6
20260906003443 81 302 7.0 12.0 0.00 0.00 0.00 30 1020.6
20260906002943 82 299 6.0 12.0 0.00 0.00 0.00 30 1020.6
20260906002714 83 308 4.0 9.0 0.00 0.00 0.00 29 1020.6
20260906001940 83 336 4.0 9.0 0.00 0.00 0.00 27 1020.6
20260906001440 83 330 4.0 8.0 0.00 0.00 0.00 27 1020.6
20260906001211 84 20 4.0 9.0 0.00 0.00 0.00 27 1020.6
20260906000440 84 18 5.0 10.0 0.00 0.00 0.00 27 1020.6
20260906000212 85 6 4.0 10.0 0.00 0.00 0.00 26 1020.6
20260905235442 85 333 4.0 9.0 0.00 0.00 0.00 26 1020.6
20260905234941 85 313 4.0 9.0 0.00 0.00 0.00 26 1020.6
20260905234441 85 49 4.0 8.0 0.00 0.00 0.00 26 1020.6
20260905233940 85 327 4.0 8.0 0.00 0.00 0.00 26 1020.6
20260905233441 85 15 4.0 10.0 0.00 0.00 0.00 26 1020.6
20260905232938 86 35 4.0 10.0 0.00 0.00 0.00 25 1020.6
20260905232439 86 4 4.0 7.0 0.00 0.00 0.00 25 1020.6
20260905231939 87 55 4.0 8.0 0.00 0.00 0.00 25 1020.6
20260905231440 87 51 4.0 8.0 0.00 0.00 0.00 24 1020.6
20260905230938 86 70 3.0 7.0 0.00 0.00 0.00 25 1020.6
20260905230439 86 70 3.0 7.0 0.00 0.00 0.00 26 1020.6
20260905225939 86 69 3.0 7.0 0.00 0.00 0.00 25 1020.6
20260905225438 87 79 2.0 7.0 0.00 0.00 0.00 25 1020.6
20260905224939 88 348 1.0 2.0 0.00 0.00 0.00 24 1020.6
20260905224935 87 95 1.0 4.0 0.00 0.00 0.00 24 1020.6
20260905223936 88 325 1.0 4.0 0.00 0.00 0.00 24 1020.6
20260905223434 87 98 2.0 4.0 0.00 0.00 0.00 24 1020.6
20260905223207 87 69 2.0 4.0 0.00 0.00 0.00 24 1020.6
20260905222437 88 82 1.0 4.0 0.00 0.00 0.00 24 1020.6
20260905221934 87 168 1.0 5.0 0.00 0.00 0.00 24 1020.6
20260905221432 86 79 4.0 9.0 0.00 0.00 0.00 25 1020.6
20260905220928 87 130 3.0 9.0 0.00 0.00 0.00 25 1020.6
20260905220431 88 82 1.0 7.0 0.00 0.00 0.00 24 1020.6
20260905215927 88 251 3.0 8.0 0.00 0.00 0.00 24 1020.6
20260905215428 89 97 6.0 13.0 0.00 0.00 0.00 24 1020.6
20260905214928 89 100 5.0 13.0 0.00 0.00 0.00 24 1020.6
20260905214425 90 80 3.0 11.0 0.00 0.00 0.00 23 1020.6
20260905213927 90 99 4.0 9.0 0.00 0.00 0.00 23 1020.6
20260905213425 89 68 3.0 9.0 0.00 0.00 0.00 24 1020.6
20260905212925 89 91 2.0 9.0 0.00 0.00 0.00 25 1020.6
20260905212427 89 14 3.0 7.0 0.00 0.00 0.00 24 1020.6
20260905211925 88 82 4.0 13.0 0.00 0.00 0.00 24 1020.6
20260905211425 89 96 2.0 13.0 0.00 0.00 0.00 23 1020.6
20260905210924 89 150 2.0 8.0 0.00 0.00 0.00 24 1020.6
20260905210655 88 70 3.0 8.0 0.00 0.00 0.00 24 1020.6
20260905205923 88 101 3.0 6.0 0.00 0.00 0.00 24 1020.6
20260905205422 88 20 4.0 8.0 0.00 0.00 0.00 24 1020.6
20260905204924 88 117 4.0 12.0 0.00 0.00 0.00 24 1020.6
20260905204422 89 112 4.0 12.0 0.00 0.00 0.00 23 1020.6
20260905203922 89 59 6.0 13.0 0.00 0.00 0.00 23 1020.6
20260905203422 89 82 6.0 13.0 0.00 0.00 0.00 24 1020.6
20260905202924 88 240 5.0 12.0 0.00 0.00 0.00 25 1020.6
20260905202421 88 124 4.0 12.0 0.00 0.00 0.00 25 1020.6
20260905202153 87 71 2.0 10.0 0.00 0.00 0.00 26 1020.6
20260905201421 87 209 3.0 7.0 0.00 0.00 0.00 27 1020.6
20260905201153 86 80 5.0 12.0 0.00 0.00 0.00 26 1020.6
20260905200420 87 84 5.0 15.0 0.00 0.00 0.00 25 1020.6
20260905195920 89 67 5.0 15.0 0.00 0.00 0.00 25 1020.6
20260905195420 88 65 6.0 12.0 0.00 0.00 0.00 24 1020.6
20260905195153 89 53 7.0 13.0 0.00 0.00 0.00 24 1020.6
20260905194652 88 72 6.0 13.0 0.00 0.00 0.00 24 1020.6
20260905193922 88 110 5.0 11.0 0.00 0.00 0.00 25 1020.6
20260905193651 88 57 5.0 11.0 0.00 0.00 0.00 25 1020.6
20260905192920 87 127 6.0 14.0 0.00 0.00 0.00 26 1020.6
20260905192651 87 47 8.0 14.0 0.00 0.00 0.00 25 1020.6
20260905191918 88 75 7.0 12.0 0.00 0.00 0.00 26 1020.6
20260905191649 87 84 6.0 12.0 0.00 0.00 0.00 27 1020.6
20260905190918 87 107 5.0 13.0 0.00 0.00 0.00 27 1020.6
20260905190419 87 84 5.0 13.0 0.00 0.00 0.00 25 1020.6
20260905185919 86 120 4.0 12.0 0.00 0.00 0.00 26 1020.6
20260905185420 87 112 4.0 14.0 0.00 0.00 0.00 25 1020.6
20260905185150 87 39 5.0 14.0 0.00 0.00 0.00 25 1020.6
20260905184418 87 74 5.0 12.0 0.00 0.00 0.00 25 1020.6
20260905183920 87 91 4.0 12.0 0.00 0.00 0.00 26 1020.6
20260905183423 86 91 3.0 9.0 0.00 0.00 0.00 29 1020.6
20260905183418 87 85 3.0 10.0 0.00 0.00 0.00 28 1020.6
20260905182419 86 248 3.0 9.0 0.00 0.00 0.00 28 1020.6
20260905182152 86 94 4.0 9.0 0.00 0.00 0.00 30 1020.6
20260905181649 85 79 4.0 9.0 0.00 0.00 0.00 31 1020.6
20260905180920 84 56 2.0 9.0 0.00 0.00 0.00 30 1020.6
20260905180417 84 70 2.0 7.0 0.00 0.00 0.00 30 1020.6
20260905175918 84 227 3.0 9.0 0.00 0.00 0.00 30 1020.6
20260905175418 85 117 3.0 9.0 0.00 0.00 0.00 30 1020.6
20260905175151 85 102 2.0 10.0 0.00 0.00 0.00 30 1020.6
20260905174418 85 118 3.0 10.0 0.00 0.00 0.00 31 1020.6
20260905173918 84 241 4.0 10.0 0.00 0.00 0.00 32 1020.6
20260905173416 85 109 3.0 10.0 0.00 0.00 0.00 32 1020.6
20260905172918 84 84 3.0 10.0 0.00 0.00 0.00 31 1020.6
20260905172417 83 120 4.0 10.0 0.00 0.00 0.00 32 1020.6
20260905172149 83 90 3.0 10.0 0.00 0.00 0.00 32 1020.6
20260905171417 84 103 3.0 7.0 0.00 0.00 0.00 32 1020.6
20260905170915 84 98 3.0 8.0 0.00 0.00 0.00 31 1020.6
20260905170412 85 91 3.0 8.0 0.00 0.00 0.00 31 1020.6
20260905170145 85 80 2.0 7.0 0.00 0.00 0.00 32 1020.6
20260905165413 85 127 2.0 9.0 0.00 0.00 0.00 31 1020.6
20260905164913 85 125 3.0 9.0 0.00 0.00 0.00 31 1020.6
20260905164640 85 102 4.0 6.0 0.00 0.00 0.00 32 1020.6
20260905163911 84 122 5.0 10.0 0.00 0.00 0.00 31 1020.6
20260905163642 84 74 4.0 10.0 0.00 0.00 0.00 29 1020.6
20260905162911 84 79 3.0 7.0 0.00 0.00 0.00 31 1020.6
20260905162409 83 111 4.0 8.0 0.00 0.00 0.00 30 1020.6
20260905162139 83 89 4.0 8.0 0.00 0.00 0.00 30 1020.6
20260905161409 83 123 3.0 6.0 0.00 0.00 0.00 29 1020.6
20260905160909 83 122 2.0 6.0 0.00 0.00 0.00 29 1020.6
20260905160409 83 99 2.0 5.0 0.00 0.00 0.00 30 1020.6
20260905155908 82 89 1.0 3.0 0.00 0.00 0.00 30 1020.6
20260905155410 82 84 1.0 2.0 0.00 0.00 0.00 28 1020.6
20260905154908 82 226 0.0 2.0 0.00 0.00 0.00 28 1020.6
20260905154409 82 140 0.0 2.0 0.00 0.00 0.00 31 1020.6
20260905153907 81 115 0.0 2.0 0.00 0.00 0.00 30 1020.6
20260905153408 80 89 0.0 2.0 0.00 0.00 0.00 31 1020.6
20260905152906 79 92 0.0 2.0 0.00 0.00 0.00 32 1020.6